• In Romania
  • List of Countries
  • For 7 days
  • Water Temperature
  • Satellite Maps
  • Weather Map
  • Weather Widgets
  • user-avatar
    Login

    Hourly Weather Prutz

    Today, 30 April, Sunday

    Time Temperature Precipitation Wind Pressure Humidity
    00:00 -1°C° 0 mm 1 mps 630 mmHg 96%
    01:00 -3°C° 0 mm 2 mps 630 mmHg 95%
    02:00 -3°C° 0 mm 2 mps 630 mmHg 95%
    03:00 -3°C° 0 mm 2 mps 630 mmHg 95%
    04:00 -3°C° 0 mm 2 mps 630 mmHg 95%
    05:00 -2°C° 0 mm 2 mps 630 mmHg 94%
    06:00 -1°C° 0 mm 2 mps 630 mmHg 92%
    07:00 +1°C° 0 mm 2 mps 630 mmHg 91%
    08:00 +3°C° 0 mm 2 mps 631 mmHg 87%
    09:00 +5°C° 0 mm 2 mps 631 mmHg 84%
    10:00 +7°C° 0 mm 2 mps 631 mmHg 80%
    11:00 +8°C° 0 mm 2 mps 631 mmHg 77%
    12:00 +8°C° 0 mm 2 mps 631 mmHg 73%
    13:00 +9°C° 0 mm 2 mps 631 mmHg 70%
    14:00 +9°C° 0 mm 2 mps 630 mmHg 70%
    15:00 +9°C° 0 mm 2 mps 630 mmHg 69%
    16:00 +9°C° 0 mm 2 mps 629 mmHg 69%
    17:00 +7°C° 0 mm 2 mps 629 mmHg 77%
    18:00 +5°C° 0 mm 2 mps 628 mmHg 84%
    19:00 +3°C° 0 mm 2 mps 627 mmHg 92%
    20:00 +3°C° 0 mm 2 mps 627 mmHg 93%
    21:00 +2°C° 0 mm 2 mps 628 mmHg 93%
    22:00 0°C° 0 mm 3 mps 628 mmHg 94%
    23:00 0°C° 0 mm 3 mps 627 mmHg 93%

    Tomorrow, 1 May, Monday

    Time Temperature Precipitation Wind Pressure Humidity
    00:00 0°C° 0 mm 3 mps 627 mmHg 92%
    01:00 -1°C° 0 mm 3 mps 627 mmHg 91%
    02:00 -1°C° 0 mm 3 mps 627 mmHg 91%
    03:00 -1°C° 0 mm 3 mps 627 mmHg 91%
    04:00 -1°C° 0 mm 2 mps 627 mmHg 90%
    05:00 +1°C° 0 mm 2 mps 627 mmHg 87%
    06:00 +2°C° 0 mm 2 mps 628 mmHg 84%
    07:00 +3°C° 0 mm 2 mps 628 mmHg 81%
    08:00 +4°C° 0.1 mm 2 mps 629 mmHg 79%
    09:00 +5°C° 0.1 mm 2 mps 629 mmHg 76%
    10:00 +6°C° 0.1 mm 2 mps 630 mmHg 74%
    11:00 +5°C° 1.5 mm 2 mps 630 mmHg 80%
    12:00 +4°C° 1.5 mm 2 mps 629 mmHg 86%
    13:00 +3°C° 1.5 mm 2 mps 629 mmHg 92%
    14:00 +2°C° 2.2 mm 2 mps 629 mmHg 94%
    15:00 +3°C° 2.2 mm 1 mps 629 mmHg 95%
    16:00 +2°C° 2.2 mm 1 mps 629 mmHg 97%
    17:00 +1°C° 1.3 mm 1 mps 629 mmHg 97%
    18:00 +1°C° 1.3 mm 1 mps 630 mmHg 97%
    19:00 0°C° 1.3 mm 1 mps 630 mmHg 98%
    20:00 0°C° 0.7 mm 1 mps 630 mmHg 98%
    21:00 -1°C° 0.7 mm 1 mps 630 mmHg 97%
    22:00 -1°C° 0.7 mm 1 mps 630 mmHg 97%
    23:00 -1°C° 0.6 mm 1 mps 630 mmHg 97%

    Day after tomorrow, 2 May, Tuesday

    Time Temperature Precipitation Wind Pressure Humidity
    00:00 -1°C° 0.6 mm 1 mps 630 mmHg 97%
    01:00 -1°C° 0.6 mm 1 mps 630 mmHg 97%
    02:00 -2°C° 0.3 mm 1 mps 630 mmHg 97%
    03:00 -2°C° 0.3 mm 1 mps 630 mmHg 96%
    04:00 -2°C° 0.3 mm 1 mps 630 mmHg 96%
    05:00 -1°C° 0.1 mm 1 mps 631 mmHg 96%
    06:00 0°C° 0.1 mm 1 mps 631 mmHg 96%
    07:00 +1°C° 0.1 mm 1 mps 631 mmHg 95%
    08:00 +2°C° 0 mm 1 mps 631 mmHg 95%
    09:00 +3°C° 0 mm 1 mps 632 mmHg 96%
    10:00 +5°C° 0 mm 1 mps 632 mmHg 96%
    11:00 +5°C° 0 mm 1 mps 632 mmHg 95%
    12:00 +6°C° 0 mm 1 mps 632 mmHg 94%
    13:00 +7°C° 0 mm 1 mps 632 mmHg 94%
    14:00 +7°C° 0.1 mm 1 mps 632 mmHg 93%
    15:00 +7°C° 0.1 mm 1 mps 632 mmHg 92%
    16:00 +7°C° 0.1 mm 1 mps 632 mmHg 92%
    17:00 +6°C° 0.1 mm 1 mps 631 mmHg 93%
    18:00 +5°C° 0.1 mm 1 mps 631 mmHg 94%
    19:00 +3°C° 0.1 mm 1 mps 631 mmHg 96%
    20:00 +2°C° 0.1 mm 1 mps 631 mmHg 96%
    21:00 +1°C° 0.1 mm 1 mps 631 mmHg 96%
    22:00 0°C° 0.1 mm 1 mps 631 mmHg 95%
    23:00 -2°C° 0 mm 2 mps 631 mmHg 95%

    3 May, Wednesday

    Time Temperature Precipitation Wind Pressure Humidity
    00:00 -2°C° 0 mm 2 mps 631 mmHg 95%
    01:00 -2°C° 0 mm 2 mps 630 mmHg 95%
    02:00 -2°C° 0 mm 2 mps 630 mmHg 95%
    03:00 -2°C° 0 mm 2 mps 630 mmHg 95%
    04:00 -2°C° 0 mm 2 mps 630 mmHg 95%
    05:00 -1°C° 0 mm 2 mps 630 mmHg 94%
    06:00 +2°C° 0 mm 1 mps 631 mmHg 93%
    07:00 +3°C° 0 mm 1 mps 631 mmHg 92%
    08:00 +4°C° 0.1 mm 1 mps 631 mmHg 91%
    09:00 +5°C° 0.1 mm 1 mps 632 mmHg 90%
    10:00 +6°C° 0.1 mm 1 mps 632 mmHg 90%
    11:00 +6°C° 0.7 mm 1 mps 632 mmHg 90%
    12:00 +6°C° 0.7 mm 1 mps 632 mmHg 91%
    13:00 +5°C° 0.7 mm 2 mps 631 mmHg 91%
    14:00 +6°C° 1.4 mm 1 mps 631 mmHg 92%
    15:00 +6°C° 1.4 mm 1 mps 631 mmHg 92%
    16:00 +6°C° 1.4 mm 1 mps 631 mmHg 93%
    17:00 +5°C° 0.5 mm 1 mps 631 mmHg 94%
    18:00 +4°C° 0.5 mm 1 mps 630 mmHg 95%
    19:00 +2°C° 0.5 mm 0 mps 630 mmHg 97%
    20:00 +1°C° 0.2 mm 0 mps 630 mmHg 97%
    21:00 0°C° 0.2 mm 0 mps 630 mmHg 97%
    22:00 -1°C° 0.2 mm 0 mps 630 mmHg 97%
    23:00 -1°C° 0.1 mm 0 mps 629 mmHg 97%

    4 May, Thursday

    Time Temperature Precipitation Wind Pressure Humidity
    00:00 -1°C° 0.1 mm 0 mps 629 mmHg 96%
    01:00 -2°C° 0.1 mm 0 mps 629 mmHg 96%
    02:00 -1°C° 0.2 mm 0 mps 629 mmHg 96%
    03:00 -1°C° 0.2 mm 0 mps 629 mmHg 95%
    04:00 -1°C° 0.2 mm 0 mps 629 mmHg 95%
    05:00 0°C° 0.1 mm 0 mps 629 mmHg 94%
    06:00 +1°C° 0.1 mm 0 mps 630 mmHg 93%
    07:00 +3°C° 0.1 mm 0 mps 630 mmHg 91%
    08:00 +4°C° 0.1 mm 0 mps 630 mmHg 89%
    09:00 +5°C° 0.1 mm 0 mps 630 mmHg 86%
    10:00 +7°C° 0.1 mm 1 mps 631 mmHg 83%
    11:00 +7°C° 0.4 mm 1 mps 630 mmHg 83%
    12:00 +7°C° 0.4 mm 1 mps 630 mmHg 82%
    13:00 +8°C° 0.4 mm 1 mps 630 mmHg 82%
    14:00 +8°C° 1 mm 1 mps 630 mmHg 83%
    15:00 +7°C° 1 mm 1 mps 630 mmHg 85%
    16:00 +7°C° 1 mm 1 mps 629 mmHg 86%
    17:00 +6°C° 1.3 mm 1 mps 629 mmHg 89%
    18:00 +5°C° 1.3 mm 1 mps 629 mmHg 93%
    19:00 +4°C° 1.3 mm 1 mps 629 mmHg 96%
    20:00 +4°C° 0.7 mm 1 mps 629 mmHg 96%
    21:00 +3°C° 0.7 mm 1 mps 630 mmHg 96%
    22:00 +2°C° 0.7 mm 1 mps 630 mmHg 97%
    23:00 +1°C° 0.1 mm 1 mps 630 mmHg 97%

    5 May, Friday

    Time Temperature Precipitation Wind Pressure Humidity
    00:00 0°C° 0.1 mm 1 mps 629 mmHg 97%
    01:00 -1°C° 0.1 mm 1 mps 629 mmHg 97%
    02:00 -1°C° 0 mm 1 mps 629 mmHg 97%
    03:00 -2°C° 0 mm 1 mps 629 mmHg 97%
    04:00 -3°C° 0 mm 1 mps 629 mmHg 96%
    05:00 -1°C° 0 mm 1 mps 630 mmHg 94%
    06:00 +2°C° 0 mm 1 mps 631 mmHg 92%
    07:00 +4°C° 0 mm 1 mps 632 mmHg 90%
    08:00 +5°C° 0 mm 0 mps 632 mmHg 85%
    09:00 +6°C° 0 mm 0 mps 633 mmHg 80%
    10:00 +8°C° 0 mm 0 mps 633 mmHg 75%
    11:00 +9°C° 0 mm 0 mps 634 mmHg 73%
    12:00 +10°C° 0 mm 0 mps 634 mmHg 71%
    13:00 +11°C° 0 mm 0 mps 634 mmHg 68%
    14:00 +12°C° 0 mm 1 mps 634 mmHg 68%
    15:00 +11°C° 0 mm 1 mps 633 mmHg 68%
    16:00 +11°C° 0 mm 1 mps 633 mmHg 67%
    17:00 +9°C° 0 mm 1 mps 633 mmHg 75%
    18:00 +7°C° 0 mm 1 mps 632 mmHg 83%
    19:00 +5°C° 0 mm 1 mps 631 mmHg 90%
    20:00 +3°C° 0 mm 1 mps 631 mmHg 91%
    21:00 +1°C° 0 mm 1 mps 630 mmHg 92%
    22:00 -1°C° 0 mm 1 mps 630 mmHg 93%
    23:00 0°C° 0 mm 1 mps 630 mmHg 90%
    Show more